EN

Hourly Weather Almaraz

Today, 16 January, Saturday

Time Temperature Precipitation Wind Pressure Humidity
00:00 +1°C° 0 mm 0 mps 740 mmHg 82%
01:00 +1°C° 0 mm 0 mps 740 mmHg 82%
02:00 +1°C° 0 mm 0 mps 740 mmHg 82%
03:00 +1°C° 0 mm 0 mps 740 mmHg 82%
04:00 +1°C° 0 mm 0 mps 740 mmHg 81%
05:00 +1°C° 0 mm 0 mps 740 mmHg 80%
06:00 +1°C° 0 mm 0 mps 740 mmHg 79%
07:00 +2°C° 0 mm 0 mps 740 mmHg 76%
08:00 +3°C° 0 mm 0 mps 740 mmHg 73%
09:00 +4°C° 0 mm 0 mps 740 mmHg 69%
10:00 +6°C° 0 mm 0 mps 740 mmHg 63%
11:00 +9°C° 0 mm 1 mps 740 mmHg 58%
12:00 +12°C° 0 mm 1 mps 740 mmHg 52%
13:00 +12°C° 0 mm 1 mps 740 mmHg 52%
14:00 +12°C° 0 mm 1 mps 739 mmHg 52%
15:00 +12°C° 0 mm 0 mps 739 mmHg 53%
16:00 +9°C° 0 mm 0 mps 739 mmHg 61%
17:00 +7°C° 0 mm 0 mps 739 mmHg 70%
18:00 +5°C° 0 mm 0 mps 739 mmHg 78%
19:00 +4°C° 0 mm 0 mps 739 mmHg 77%
20:00 +4°C° 0 mm 0 mps 740 mmHg 76%
21:00 +5°C° 0 mm 1 mps 740 mmHg 75%
22:00 +4°C° 0 mm 1 mps 741 mmHg 75%
23:00 +4°C° 0 mm 1 mps 741 mmHg 75%

Tomorrow, 17 January, Sunday

Time Temperature Precipitation Wind Pressure Humidity
00:00 +4°C° 0 mm 1 mps 741 mmHg 75%
01:00 +3°C° 0 mm 1 mps 741 mmHg 75%
02:00 +3°C° 0 mm 1 mps 740 mmHg 74%
03:00 +3°C° 0 mm 1 mps 740 mmHg 74%
04:00 +2°C° 0 mm 1 mps 740 mmHg 74%
05:00 +1°C° 0 mm 0 mps 740 mmHg 74%
06:00 +1°C° 0 mm 0 mps 740 mmHg 74%
07:00 +2°C° 0 mm 0 mps 740 mmHg 71%
08:00 +3°C° 0 mm 0 mps 740 mmHg 68%
09:00 +4°C° 0 mm 0 mps 741 mmHg 65%
10:00 +7°C° 0 mm 1 mps 741 mmHg 60%
11:00 +9°C° 0 mm 1 mps 741 mmHg 54%
12:00 +12°C° 0 mm 1 mps 741 mmHg 49%
13:00 +12°C° 0 mm 1 mps 740 mmHg 50%
14:00 +13°C° 0 mm 1 mps 739 mmHg 51%
15:00 +13°C° 0 mm 1 mps 739 mmHg 51%
16:00 +11°C° 0 mm 1 mps 739 mmHg 60%
17:00 +8°C° 0 mm 1 mps 739 mmHg 68%
18:00 +5°C° 0 mm 0 mps 739 mmHg 77%
19:00 +5°C° 0 mm 0 mps 739 mmHg 77%
20:00 +5°C° 0 mm 1 mps 739 mmHg 78%
21:00 +5°C° 0 mm 1 mps 739 mmHg 79%
22:00 +4°C° 0 mm 1 mps 739 mmHg 79%
23:00 +4°C° 0 mm 1 mps 739 mmHg 79%

Day after tomorrow, 18 January, Monday

Time Temperature Precipitation Wind Pressure Humidity
00:00 +4°C° 0 mm 1 mps 739 mmHg 79%
01:00 +3°C° 0 mm 1 mps 739 mmHg 79%
02:00 +3°C° 0 mm 1 mps 739 mmHg 79%
03:00 +3°C° 0 mm 1 mps 738 mmHg 79%
04:00 +3°C° 0 mm 1 mps 738 mmHg 78%
05:00 +3°C° 0 mm 1 mps 738 mmHg 78%
06:00 +3°C° 0 mm 1 mps 738 mmHg 77%
07:00 +4°C° 0 mm 1 mps 738 mmHg 75%
08:00 +5°C° 0 mm 1 mps 739 mmHg 72%
09:00 +5°C° 0 mm 1 mps 739 mmHg 69%
10:00 +8°C° 0 mm 1 mps 739 mmHg 64%
11:00 +10°C° 0 mm 1 mps 739 mmHg 58%
12:00 +13°C° 0 mm 1 mps 739 mmHg 53%
13:00 +13°C° 0 mm 1 mps 738 mmHg 53%
14:00 +13°C° 0 mm 1 mps 737 mmHg 53%
15:00 +14°C° 0 mm 1 mps 737 mmHg 54%
16:00 +12°C° 0 mm 1 mps 737 mmHg 63%
17:00 +9°C° 0 mm 1 mps 737 mmHg 73%
18:00 +7°C° 0 mm 1 mps 737 mmHg 83%
19:00 +6°C° 0 mm 1 mps 737 mmHg 82%
20:00 +6°C° 0 mm 1 mps 737 mmHg 82%
21:00 +6°C° 0 mm 1 mps 737 mmHg 82%
22:00 +5°C° 0 mm 1 mps 737 mmHg 81%
23:00 +5°C° 0 mm 1 mps 737 mmHg 80%

19 January, Tuesday

Time Temperature Precipitation Wind Pressure Humidity
00:00 +5°C° 0 mm 1 mps 737 mmHg 79%
01:00 +4°C° 0 mm 1 mps 737 mmHg 79%
02:00 +4°C° 0 mm 1 mps 737 mmHg 79%
03:00 +4°C° 0 mm 1 mps 736 mmHg 79%
04:00 +4°C° 0 mm 1 mps 736 mmHg 81%
05:00 +3°C° 0 mm 1 mps 736 mmHg 83%
06:00 +3°C° 0 mm 1 mps 736 mmHg 85%
07:00 +4°C° 0 mm 1 mps 736 mmHg 83%
08:00 +5°C° 0 mm 1 mps 736 mmHg 82%
09:00 +5°C° 0 mm 1 mps 736 mmHg 80%
10:00 +7°C° 0 mm 1 mps 736 mmHg 78%
11:00 +8°C° 0 mm 1 mps 736 mmHg 75%
12:00 +9°C° 0 mm 1 mps 736 mmHg 73%
13:00 +10°C° 0 mm 1 mps 736 mmHg 74%
14:00 +10°C° 0 mm 1 mps 735 mmHg 75%
15:00 +10°C° 0 mm 1 mps 734 mmHg 76%
16:00 +9°C° 0 mm 1 mps 734 mmHg 79%
17:00 +9°C° 0 mm 1 mps 734 mmHg 82%
18:00 +8°C° 0 mm 1 mps 734 mmHg 86%
19:00 +8°C° 0 mm 1 mps 734 mmHg 86%
20:00 +8°C° 0 mm 1 mps 734 mmHg 86%
21:00 +8°C° 0 mm 1 mps 734 mmHg 86%
22:00 +8°C° 0 mm 1 mps 733 mmHg 87%
23:00 +7°C° 0 mm 2 mps 733 mmHg 87%

20 January, Wednesday

Time Temperature Precipitation Wind Pressure Humidity
00:00 +7°C° 0 mm 2 mps 733 mmHg 88%
01:00 +7°C° 0 mm 2 mps 732 mmHg 89%
02:00 +7°C° 0 mm 2 mps 731 mmHg 89%
03:00 +7°C° 0 mm 2 mps 731 mmHg 90%
04:00 +7°C° 0.2 mm 3 mps 730 mmHg 91%
05:00 +7°C° 0.2 mm 3 mps 729 mmHg 91%
06:00 +7°C° 0.2 mm 3 mps 728 mmHg 92%
07:00 +7°C° 1.8 mm 3 mps 727 mmHg 93%
08:00 +8°C° 1.8 mm 3 mps 727 mmHg 94%
09:00 +8°C° 1.8 mm 3 mps 726 mmHg 95%
10:00 +7°C° 3.2 mm 4 mps 726 mmHg 95%
11:00 +8°C° 3.2 mm 4 mps 726 mmHg 95%
12:00 +10°C° 3.2 mm 4 mps 725 mmHg 95%
13:00 +10°C° 0.6 mm 4 mps 725 mmHg 92%
14:00 +11°C° 0.6 mm 4 mps 724 mmHg 90%
15:00 +11°C° 0.6 mm 4 mps 724 mmHg 88%
16:00 +11°C° 0.9 mm 4 mps 724 mmHg 90%
17:00 +10°C° 0.9 mm 5 mps 724 mmHg 91%
18:00 +9°C° 0.9 mm 5 mps 725 mmHg 93%
19:00 +9°C° 0.4 mm 5 mps 725 mmHg 93%
20:00 +9°C° 0.4 mm 5 mps 726 mmHg 94%
21:00 +9°C° 0.4 mm 5 mps 726 mmHg 94%
22:00 +9°C° 0.1 mm 5 mps 727 mmHg 94%
23:00 +9°C° 0.1 mm 5 mps 728 mmHg 95%

21 January, Thursday

Time Temperature Precipitation Wind Pressure Humidity
00:00 +10°C° 0.1 mm 4 mps 728 mmHg 95%
01:00 +10°C° 0 mm 4 mps 728 mmHg 95%
02:00 +8°C° 0 mm 4 mps 729 mmHg 96%
03:00 +8°C° 0 mm 4 mps 729 mmHg 96%
04:00 +9°C° 0 mm 3 mps 729 mmHg 96%
05:00 +9°C° 0 mm 3 mps 729 mmHg 96%
06:00 +9°C° 0 mm 3 mps 729 mmHg 97%
07:00 +9°C° 0.1 mm 3 mps 730 mmHg 96%
08:00 +8°C° 0.1 mm 4 mps 730 mmHg 95%
09:00 +8°C° 0.1 mm 4 mps 730 mmHg 94%
10:00 +10°C° 0.1 mm 4 mps 730 mmHg 91%
11:00 +10°C° 0.1 mm 4 mps 729 mmHg 89%
12:00 +10°C° 0.1 mm 5 mps 729 mmHg 87%
13:00 +10°C° 0.9 mm 5 mps 728 mmHg 89%
14:00 +10°C° 0.9 mm 5 mps 728 mmHg 91%
15:00 +10°C° 0.9 mm 5 mps 727 mmHg 93%
16:00 +10°C° 0.7 mm 5 mps 727 mmHg 93%
17:00 +10°C° 0.7 mm 5 mps 727 mmHg 94%
18:00 +9°C° 0.7 mm 5 mps 726 mmHg 94%
19:00 +9°C° 0.5 mm 5 mps 726 mmHg 95%
20:00 +10°C° 0.5 mm 4 mps 726 mmHg 95%
21:00 +10°C° 0.5 mm 4 mps 726 mmHg 96%
22:00 +8°C° 0.5 mm 5 mps 726 mmHg 95%
23:00 +8°C° 0.5 mm 5 mps 726 mmHg 95%
Show more